• în România
  • Lista ţărilor
  • Pe 7 zile
  • Temperatura apei
  • Hartă satelitară
  • Meteo pe hartă
  • Widget-uri
  • user-avatar
    Intrare

    Meteo pe oră la Shkoder

    Astăzi, 22 Octombrie, Duminică

    Timp Temperatura Precipitaţii Vânt Presiune Umiditate
    00:00 +14°C° 0 mm 1 m/s 741 mmHg 84%
    01:00 +14°C° 0 mm 1 m/s 741 mmHg 82%
    02:00 +14°C° 0 mm 1 m/s 741 mmHg 81%
    03:00 +14°C° 0 mm 1 m/s 741 mmHg 80%
    04:00 +14°C° 0 mm 1 m/s 741 mmHg 80%
    05:00 +14°C° 0 mm 1 m/s 741 mmHg 77%
    06:00 +14°C° 0 mm 1 m/s 741 mmHg 75%
    07:00 +15°C° 0 mm 1 m/s 741 mmHg 71%
    08:00 +18°C° 0 mm 1 m/s 741 mmHg 66%
    09:00 +19°C° 0 mm 1 m/s 740 mmHg 62%
    10:00 +21°C° 0 mm 1 m/s 740 mmHg 58%
    11:00 +21°C° 0 mm 2 m/s 740 mmHg 59%
    12:00 +21°C° 0 mm 2 m/s 739 mmHg 59%
    13:00 +23°C° 0 mm 2 m/s 739 mmHg 60%
    14:00 +21°C° 0 mm 2 m/s 739 mmHg 66%
    15:00 +20°C° 0 mm 2 m/s 738 mmHg 71%
    16:00 +19°C° 0 mm 2 m/s 738 mmHg 77%
    17:00 +18°C° 0 mm 2 m/s 737 mmHg 82%
    18:00 +17°C° 0 mm 2 m/s 737 mmHg 87%
    19:00 +16°C° 0 mm 2 m/s 737 mmHg 92%
    20:00 +16°C° 0,3 mm 2 m/s 736 mmHg 91%
    21:00 +16°C° 0,3 mm 2 m/s 736 mmHg 89%
    22:00 +16°C° 0,3 mm 3 m/s 736 mmHg 88%
    23:00 +16°C° 1 mm 3 m/s 735 mmHg 88%

    Mâine, 23 Octombrie, Luni

    Timp Temperatura Precipitaţii Vânt Presiune Umiditate
    00:00 +16°C° 1 mm 3 m/s 734 mmHg 88%
    01:00 +15°C° 1 mm 4 m/s 734 mmHg 88%
    02:00 +15°C° 1,9 mm 4 m/s 734 mmHg 88%
    03:00 +15°C° 1,9 mm 4 m/s 733 mmHg 89%
    04:00 +15°C° 1,9 mm 4 m/s 733 mmHg 89%
    05:00 +15°C° 0,4 mm 4 m/s 732 mmHg 89%
    06:00 +15°C° 0,4 mm 4 m/s 732 mmHg 89%
    07:00 +15°C° 0,4 mm 4 m/s 732 mmHg 89%
    08:00 +15°C° 0,5 mm 4 m/s 732 mmHg 85%
    09:00 +17°C° 0,5 mm 4 m/s 732 mmHg 81%
    10:00 +17°C° 0,5 mm 4 m/s 731 mmHg 77%
    11:00 +17°C° 0,7 mm 4 m/s 731 mmHg 75%
    12:00 +17°C° 0,7 mm 3 m/s 731 mmHg 73%
    13:00 +17°C° 0,7 mm 3 m/s 730 mmHg 71%
    14:00 +17°C° 0,8 mm 3 m/s 730 mmHg 73%
    15:00 +16°C° 0,8 mm 2 m/s 730 mmHg 75%
    16:00 +15°C° 0,8 mm 1 m/s 730 mmHg 78%
    17:00 +15°C° 0,6 mm 2 m/s 730 mmHg 79%
    18:00 +14°C° 0,6 mm 2 m/s 731 mmHg 81%
    19:00 +13°C° 0,6 mm 2 m/s 731 mmHg 83%
    20:00 +12°C° 0,9 mm 3 m/s 731 mmHg 82%
    21:00 +12°C° 0,9 mm 3 m/s 731 mmHg 82%
    22:00 +11°C° 0,9 mm 4 m/s 731 mmHg 81%
    23:00 +11°C° 0,6 mm 3 m/s 731 mmHg 81%

    Poimâine, 24 Octombrie, Marţi

    Timp Temperatura Precipitaţii Vânt Presiune Umiditate
    00:00 +11°C° 0,6 mm 3 m/s 731 mmHg 81%
    01:00 +10°C° 0,6 mm 3 m/s 731 mmHg 82%
    02:00 +10°C° 0,3 mm 3 m/s 731 mmHg 82%
    03:00 +10°C° 0,3 mm 3 m/s 731 mmHg 81%
    04:00 +10°C° 0,3 mm 3 m/s 731 mmHg 81%
    05:00 +10°C° 0,2 mm 3 m/s 731 mmHg 81%
    06:00 +10°C° 0,2 mm 3 m/s 732 mmHg 81%
    07:00 +10°C° 0,2 mm 3 m/s 732 mmHg 81%
    08:00 +11°C° 0,3 mm 3 m/s 732 mmHg 77%
    09:00 +12°C° 0,3 mm 3 m/s 732 mmHg 73%
    10:00 +12°C° 0,3 mm 3 m/s 732 mmHg 69%
    11:00 +13°C° 0,3 mm 3 m/s 733 mmHg 68%
    12:00 +13°C° 0,3 mm 4 m/s 733 mmHg 67%
    13:00 +13°C° 0,3 mm 4 m/s 733 mmHg 66%
    14:00 +13°C° 0,1 mm 4 m/s 733 mmHg 68%
    15:00 +13°C° 0,1 mm 4 m/s 733 mmHg 70%
    16:00 +12°C° 0,1 mm 4 m/s 733 mmHg 71%
    17:00 +12°C° 0,2 mm 4 m/s 734 mmHg 73%
    18:00 +11°C° 0,2 mm 4 m/s 734 mmHg 75%
    19:00 +11°C° 0,2 mm 3 m/s 735 mmHg 77%
    20:00 +11°C° 0,1 mm 4 m/s 735 mmHg 78%
    21:00 +11°C° 0,1 mm 4 m/s 735 mmHg 79%
    22:00 +10°C° 0,1 mm 4 m/s 736 mmHg 80%
    23:00 +11°C° 0,1 mm 4 m/s 736 mmHg 81%

    25 Octombrie, Miercuri

    Timp Temperatura Precipitaţii Vânt Presiune Umiditate
    00:00 +11°C° 0,1 mm 4 m/s 736 mmHg 82%
    01:00 +11°C° 0,1 mm 4 m/s 737 mmHg 82%
    02:00 +11°C° 0,1 mm 4 m/s 737 mmHg 83%
    03:00 +12°C° 0,1 mm 4 m/s 737 mmHg 84%
    04:00 +12°C° 0,1 mm 4 m/s 737 mmHg 85%
    05:00 +12°C° 0 mm 4 m/s 738 mmHg 84%
    06:00 +12°C° 0 mm 4 m/s 738 mmHg 84%
    07:00 +12°C° 0 mm 4 m/s 739 mmHg 83%
    08:00 +14°C° 0 mm 5 m/s 740 mmHg 77%
    09:00 +15°C° 0 mm 5 m/s 740 mmHg 72%
    10:00 +16°C° 0 mm 5 m/s 741 mmHg 66%
    11:00 +17°C° 0 mm 5 m/s 741 mmHg 65%
    12:00 +17°C° 0 mm 5 m/s 741 mmHg 63%
    13:00 +19°C° 0 mm 4 m/s 741 mmHg 62%
    14:00 +18°C° 0 mm 4 m/s 742 mmHg 64%
    15:00 +17°C° 0 mm 4 m/s 742 mmHg 67%
    16:00 +15°C° 0 mm 5 m/s 742 mmHg 70%
    17:00 +14°C° 0 mm 4 m/s 743 mmHg 72%
    18:00 +14°C° 0 mm 4 m/s 744 mmHg 74%
    19:00 +13°C° 0 mm 4 m/s 744 mmHg 76%
    20:00 +12°C° 0 mm 4 m/s 745 mmHg 78%
    21:00 +12°C° 0 mm 4 m/s 745 mmHg 79%
    22:00 +11°C° 0 mm 3 m/s 745 mmHg 80%
    23:00 +11°C° 0 mm 3 m/s 745 mmHg 81%

    26 Octombrie, Joi

    Timp Temperatura Precipitaţii Vânt Presiune Umiditate
    00:00 +11°C° 0 mm 3 m/s 746 mmHg 81%
    01:00 +11°C° 0 mm 3 m/s 746 mmHg 81%
    02:00 +11°C° 0 mm 3 m/s 746 mmHg 81%
    03:00 +11°C° 0 mm 3 m/s 746 mmHg 80%
    04:00 +11°C° 0 mm 3 m/s 746 mmHg 80%
    05:00 +11°C° 0 mm 3 m/s 746 mmHg 79%
    06:00 +11°C° 0 mm 3 m/s 746 mmHg 77%
    07:00 +11°C° 0 mm 3 m/s 747 mmHg 76%
    08:00 +15°C° 0 mm 2 m/s 747 mmHg 68%
    09:00 +17°C° 0 mm 2 m/s 747 mmHg 60%
    10:00 +19°C° 0 mm 2 m/s 747 mmHg 53%
    11:00 +20°C° 0 mm 2 m/s 746 mmHg 49%
    12:00 +21°C° 0 mm 2 m/s 746 mmHg 46%
    13:00 +23°C° 0 mm 2 m/s 746 mmHg 43%
    14:00 +21°C° 0 mm 2 m/s 746 mmHg 48%
    15:00 +20°C° 0 mm 2 m/s 745 mmHg 54%
    16:00 +19°C° 0 mm 2 m/s 745 mmHg 59%
    17:00 +18°C° 0 mm 2 m/s 746 mmHg 60%
    18:00 +17°C° 0 mm 2 m/s 746 mmHg 62%
    19:00 +15°C° 0 mm 2 m/s 746 mmHg 63%
    20:00 +15°C° 0 mm 2 m/s 746 mmHg 62%
    21:00 +15°C° 0 mm 2 m/s 746 mmHg 61%
    22:00 +15°C° 0 mm 2 m/s 746 mmHg 60%
    23:00 +15°C° 0 mm 2 m/s 746 mmHg 59%

    27 Octombrie, Vineri

    Timp Temperatura Precipitaţii Vânt Presiune Umiditate
    00:00 +14°C° 0 mm 2 m/s 746 mmHg 59%
    01:00 +14°C° 0 mm 2 m/s 746 mmHg 59%
    02:00 +14°C° 0 mm 2 m/s 745 mmHg 59%
    03:00 +14°C° 0 mm 2 m/s 745 mmHg 58%
    04:00 +14°C° 0 mm 2 m/s 745 mmHg 58%
    05:00 +14°C° 0 mm 2 m/s 745 mmHg 58%
    06:00 +14°C° 0 mm 1 m/s 744 mmHg 58%
    07:00 +15°C° 0 mm 1 m/s 744 mmHg 58%
    08:00 +18°C° 0 mm 1 m/s 744 mmHg 52%
    09:00 +20°C° 0 mm 1 m/s 744 mmHg 46%
    10:00 +23°C° 0 mm 1 m/s 744 mmHg 41%
    11:00 +23°C° 0 mm 1 m/s 743 mmHg 41%
    12:00 +23°C° 0 mm 1 m/s 742 mmHg 41%
    13:00 +24°C° 0 mm 2 m/s 742 mmHg 40%
    14:00 +23°C° 0 mm 2 m/s 741 mmHg 47%
    15:00 +21°C° 0 mm 1 m/s 741 mmHg 54%
    16:00 +20°C° 0 mm 1 m/s 740 mmHg 61%
    17:00 +19°C° 0 mm 1 m/s 740 mmHg 66%
    18:00 +16°C° 0 mm 1 m/s 739 mmHg 71%
    19:00 +15°C° 0 mm 1 m/s 739 mmHg 76%
    20:00 +15°C° 0 mm 1 m/s 739 mmHg 75%
    21:00 +14°C° 0 mm 1 m/s 738 mmHg 74%
    22:00 +14°C° 0 mm 2 m/s 738 mmHg 73%
    23:00 +14°C° 0 mm 2 m/s 737 mmHg 72%
    Arată mai mult